Location: Piotrkow Trybunalski
(51.4000°N, 19.6830°E)
Time: 02:52:16
(UTC+01:00)

Explorer 7 - Visible Passes

Search period start: 15 December 2025 00:00
Search period end: 25 December 2025 00:00
Orbit: 435 x 553 km, 50.3° (Epoch: 14 December)

Date Brightness Start Highest point End Pass type
(mag) Time Alt. Az. Time Alt. Az. Time Alt. Az.
15 Dec 7.0 17:15:04 10° SW 17:18:29 45° SSE 17:19:50 29° ESE visible
15 Dec 9.2 18:53:21 10° W 18:54:20 18° W 18:54:20 18° W visible
16 Dec 7.1 16:51:29 10° SW 16:54:55 45° SSE 16:57:16 18° E visible
16 Dec 8.2 18:29:47 10° W 18:31:45 31° W 18:31:45 31° W visible
17 Dec 7.2 16:27:53 10° SW 16:31:21 45° SSE 16:34:39 10° E visible
17 Dec 6.9 18:06:11 10° W 18:09:09 58° WSW 18:09:09 58° WSW visible
18 Dec 6.3 17:42:34 10° W 17:46:07 75° S 17:46:32 64° ESE visible
19 Dec 6.4 17:18:55 10° W 17:22:29 75° S 17:23:54 33° E visible
19 Dec 9.3 18:57:29 10° W 18:58:24 17° W 18:58:24 17° W visible
20 Dec 6.5 16:55:15 10° W 16:58:50 75° S 17:01:18 18° E visible
20 Dec 8.4 18:33:48 10° W 18:35:48 29° WSW 18:35:48 29° WSW visible
21 Dec 6.5 16:31:32 10° W 16:35:09 75° S 16:38:40 10° E visible
21 Dec 7.2 18:10:06 10° W 18:13:13 46° SW 18:13:13 46° SW visible
22 Dec 7.1 17:46:24 10° W 17:49:50 48° SSW 17:50:42 38° SSE visible
23 Dec 7.2 17:22:38 10° W 17:26:05 48° SSW 17:28:15 20° SE visible
23 Dec 9.5 19:01:55 10° WSW 19:02:46 13° WSW 19:02:46 13° WSW visible
24 Dec 7.2 16:58:52 10° W 17:02:21 49° SSW 17:05:44 10° ESE visible
24 Dec 9.0 18:38:08 10° WSW 18:40:17 15° SW 18:40:28 15° SW visible
